AirNav   Air Wisconsin pilot careers
 
 866 users online  

5Y1 Albert J Lindberg Airport
Hessel, Michigan, USA

GOING TO HESSEL?


FAA INFORMATION EFFECTIVE 31 JANUARY 2019

Location

FAA Identifier: 5Y1
Lat/Long: 46-02-07.5450N / 084-25-03.7300W
46-02.125750N / 084-25.062167W
46.0354292 / -84.4177028
(estimated)
Elevation: 760 ft. / 232 m (estimated)
Variation: 06W (1985)
From city: 2 miles N of HESSEL, MI
Time zone: UTC -5 (UTC -4 during Daylight Saving Time)
Zip code: 49719

Airport Operations

Airport use: Open to the public
Activation date: 04/1940
Control tower: no
ARTCC: TORONTO CENTER
FSS: GREEN BAY FLIGHT SERVICE STATION
NOTAMs facility: GRB (NOTAM-D service available)
Attendance: MON-FRI 0900-1700
Wind indicator: yes
Segmented circle: yes
Lights: ACTVT PAPI RWY 09 & 27; MIRL RWY 9/27 - CTAF.
Beacon: white-green (lighted land airport)
Operates sunset to sunrise.

Airport Communications

CTAF: 122.9
WX AWOS-3PT at CIU (13 nm N): 127.575 (906-495-7134)
WX AWOS-3 at MCD (14 nm SW): 118.275 (906-847-3778)

Nearby radio navigation aids

VOR radial/distance  VOR name  Freq  Var
SSMr195/23.0SAULT STE MARIE VOR/DME112.2004W
PLNr029/26.4PELLSTON VORTAC111.8006W

Airport Services

Parking: hangars and tiedowns

Runway Information

Runway 9/27

Dimensions: 3700 x 60 ft. / 1128 x 18 m
Surface: asphalt, in fair condition
Weight bearing capacity: 
Single wheel: 30.0
Double wheel: 60.0
Runway edge lights: medium intensity
Runway edge markings: MARKINGS ARE FADED.
RUNWAY 9  RUNWAY 27
Latitude: 46-02.132333N46-02.119167N
Longitude: 084-25.499333W084-24.624333W
Elevation: 760.0 ft.760.0 ft.
Traffic pattern: leftleft
Displaced threshold: 187 ft.no
Markings: basic, in fair conditionbasic, in fair condition
Visual slope indicator: 2-light PAPI on left (4.00 degrees glide path)2-light PAPI on left (3.50 degrees glide path)
Obstructions: 42 ft. trees, 900 ft. from runway, 16:1 slope to clear
APCH RATIO 20:1 AT DSPLCD THLD.
56 ft. trees, 1320 ft. from runway, 20:1 slope to clear

Airport Ownership and Management from official FAA records

Ownership: Publicly-owned
Owner: CLARK TOWNSHIP
PO BOX 367
CEDARVILLE, MI 49719
Phone 906-484-2672
Manager: JOE BAKER
P.O. BOX 367
CEDARVILLE, MI 49719
Phone 906-430-8034
906-484-2672.

Airport Operational Statistics

Aircraft based on the field: 7
Single engine airplanes: 7
    
Aircraft operations: avg 21/month *
80% transient general aviation
20% local general aviation
* for 12-month period ending 31 December 2015

Additional Remarks

FOR FICONS CALL 906-484-2672.
FOR AV GAS CALL (616) 293-5849.

Instrument Procedures

There are no published instrument procedures at 5Y1.

Some nearby airports with instrument procedures:

KCIU - Chippewa County International Airport (13 nm N)
KMCD - Mackinac Island Airport (14 nm SW)
83D - Mackinac County Airport (16 nm SW)
6Y1 - Bois Blanc Island Airport (17 nm S)
KSLH - Cheboygan County Airport (23 nm S)
 
Loc | Ops | Rwys | IFR | FBO | Links
Com | Nav | Svcs | Stats | Notes
Area around 5Y1 (Albert J Lindberg Airport)
 
Road maps at: MapQuest Bing Google
 
Aerial photo
WARNING: Photo may not be current or correct
Aerial photo of 5Y1 (Albert J Lindberg Airport)
Photo by Antonio Simao and Eric Wyn
Taken in June 2009

Do you have a better or more recent aerial photo of Albert J Lindberg Airport that you would like to share? If so, please send us your photo.

 
Sectional chart

 
Airport distance calculator
Flying to Albert J Lindberg Airport? Find the distance to fly.

From to 5Y1

Sunrise and sunset
Times for 15-Feb-2019
 Local
(UTC-5)
 Zulu
(UTC)
Morning civil twilight07:1112:11
Sunrise07:4112:41
Sunset18:0223:02
Evening civil twilight18:3323:33

Current date and time
Zulu (UTC)  16-Feb-2019 00:30:24
Local (UTC-5)  15-Feb-2019 19:30:24
 
METAR
KCIU 
13nm N 
152356Z AUTO 32016G20KT 3SM -SN BR SCT014 OVC022 M06/M08 A2977 RMK AO2 SLP109 P0000 60000 T10611078 11039 21061 53057 FZRANO
KMCD 
14nm SW 
160015Z AUTO 30012G18KT 7SM -SN BKN016 OVC023 M05/M07 A2981 RMK AO2 T10521073
KSLH 
23nm S 
160015Z AUTO 29017G23KT 10SM SCT017 BKN025 OVC075 M05/M07 A2982 RMK AO2 T10501071
KANJ 
26nm N 
152355Z AUTO 31009G23KT 10SM FEW031 FEW055 OVC070 M05/M08 A2976 RMK AO2 SLP088 60000 T10501083 11033 21050 53053
TAF
CYAM 
27nm N 
151938Z 1520/1608 32020G30KT 11/4SM -SHSN BKN008 OVC012 TEMPO 1520/1522 6SM -SHSN SCT008 BKN020 FM152200 31020G30KT 4SM -SN OVC015 TEMPO 1522/1605 P6SM -SN BKN025 PROB30 1523/1601 11/2SM -SHSN BLSN FM160500 31012KT P6SM BKN015 TEMPO 1605/1608 SCT015 RMK NXT FCST BY 160200Z
KPLN 
32nm SW 
151739Z 1518/1618 29018G32KT 5SM -SHSN SCT016 BKN029 TEMPO 1518/1520 2SM -SHSN BKN016 FM152000 30018G30KT P6SM VCSH OVC020 FM160300 31010G18KT P6SM OVC025 FM160800 32006KT P6SM BKN250
NOTAMs
Click for the latest NOTAMs
NOTAMs are issued by the DoD/FAA and will open in a separate window not controlled by AirNav.

 

 
 

Would you like to see your business listed on this page?

 If your business provides an interesting product or service to pilots, flight crews, aircraft, or users of the Albert J Lindberg Airport, you should consider listing it here.  To start the listing process, click on the button below
 
Add a business
 

Other Pages about Albert J Lindberg Airport

Page from the Michigan Airport Directory (PDF)
 
Update a link
 
Copyright © AirNav, LLC. All rights reserved. Privacy Policy  Contact